Orbital Elements at Epoch 2459200.5 (2020-Dec-17.0) TDB
Reference: JPL 20 (heliocentric ecliptic J2000)
Element | Value | Uncertainty (1-sigma) | Units |
e | .195803635973745 | 3.6792e-08 | |
a | 2.358296062494214 | 6.6066e-09 | au |
q | 1.896533118755281 | 8.8692e-08 | au |
i | 1.475591622234277 | 3.0487e-06 | deg |
node | 274.4428737249548 | 0.00016609 | deg |
peri | 140.2029704800981 | 0.00016636 | deg |
M | 353.5572994681712 | 9.2072e-06 | deg |
tp | 2459224.173439448660 (2021-Jan-09.67343945) | 3.384e-05 | TDB |
period | 1322.805267669124 3.62 | 5.5586e-06 1.522e-08 | d yr |
n | .2721489011261236 | 1.1436e-09 | deg/d |
Q | 2.820059006233147 | 7.9002e-09 | au |
|
| | Orbit Determination Parameters
Additional Information
|